Location: La Chapelle-sur-Chézy
(48.9470°N, 3.3779°E)
Time: 15:35:03
(UTC+00:00)

Daily predictions for brighter satellites

Satellite Brightness Start Highest point End
(mag) Time Altitude Azimuth Time Altitude Azimuth Time Altitude Azimuth
USA 215 3.6 20:17:01 10° SE 20:23:29 60° SW 20:30:00 10° WNW
Cosmos 494 Rocket 4.1 20:18:55 10° NNW 20:24:13 87° ENE 20:29:28 10° SSE
NOSS 2-3 (D) 4.0 20:24:21 10° S 20:27:35 30° ESE 20:31:04 10° ENE
IRS-1A Rocket 4.4 20:23:33 10° SSE 20:29:12 78° ENE 20:35:00 10° NNW
Okean-O 3.1 20:25:11 10° S 20:29:33 63° W 20:33:56 10° NNW
Gbstr 26 Del rocket 3.3 20:27:59 10° WSW 20:32:17 86° NNW 20:37:34 10° ENE
Timation 2 Rocket 4.2 20:26:28 10° S 20:32:27 46° ESE 20:38:15 10° NE
CZ-4C R/B 3.1 20:29:38 10° NNE 20:33:21 61° ESE 20:36:52 10° S
Cosmos 1125 Rocket 4.3 20:30:01 10° SSE 20:34:42 33° ESE 20:39:25 10° NE
USA 276 1.9 20:36:42 10° WNW 20:39:38 79° SSW 20:42:40 10° ESE
Cosmos 2084 3.4 20:38:49 10° SSW 20:42:50 50° SE 20:46:41 10° NE
SPOT 3 Rocket 3.9 20:38:48 10° SE 20:43:52 56° ENE 20:48:58 10° N
NOSS 2-2 (E) 2.8 20:47:11 10° SSW 20:50:23 55° SE 20:53:27 10° NE
NOSS 2-2 (C) 2.6 20:47:32 10° SW 20:50:43 89° SE 20:53:53 10° NE
In-Cosmos 22 Rocket 4.3 20:47:05 10° S 20:52:46 67° E 20:58:20 10° NNE
Landsat 4 4.3 20:49:58 12° SE 20:52:46 37° ENE 20:55:59 10° N
Nadezhda 3 Rocket 4.0 20:47:05 10° N 20:53:17 90° SW 20:59:26 10° S
BREEZE-M DEB (TANK) 3.3 20:51:30 10° W 20:54:17 67° SSW 21:01:47 10° ESE
Cosmos 1544 Rocket 4.2 20:50:28 10° N 20:54:34 39° ENE 20:58:03 13° SE
NOSS 2-3 (E) 3.1 20:52:57 10° SSW 20:56:33 63° SE 21:00:34 10° NE
Cosmos 1844 4.2 20:51:31 10° SW 20:57:17 67° WNW 21:03:03 10° NNE
Terra 1.9 20:53:00 10° SSE 20:57:44 85° WSW 21:02:30 10° NNW
Meteor 1-21 Rocket 4.5 20:58:43 10° SSW 21:04:15 73° WNW 21:09:49 10° N
USA 305 4.2 21:01:46 10° WNW 21:05:17 34° N 21:08:29 10° ENE
ATLAS CENTAUR R/B 1.7 21:03:38 10° NW 21:07:32 55° SW 21:10:52 15° SSE
Cosmos 1437 Rocket 3.6 21:07:19 16° SE 21:09:29 28° E 21:12:39 10° NNE
Meteor 2-1 Rocket 4.3 21:08:04 10° NNW 21:13:45 84° W 21:18:59 12° S
Cosmos 1833 Rocket 2.9 21:08:10 10° NNW 21:13:49 66° ENE 21:18:22 16° SE
NOSS 2-3 (C) 3.2 21:10:40 10° SW 21:14:18 90° NNE 21:18:25 10° NE
Cosmos 1455 Rocket 3.8 21:10:46 10° NNW 21:15:02 50° W 21:19:14 10° SSW
Cosmos 1975 Rocket 3.3 21:14:13 10° SSW 21:18:40 75° W 21:23:10 10° N
Cosmos 1025 Rocket 4.5 21:15:17 10° SW 21:19:13 37° WNW 21:23:12 10° N
Cosmos 44 3.8 21:14:38 10° S 21:19:36 44° ESE 21:24:25 10° NE
Orbus 7S? 4.1 21:17:33 10° WNW 21:19:53 25° SW 21:21:20 16° S
Cosmos 962 Rocket 4.5 21:15:24 10° S 21:21:35 72° E 21:27:43 10° NNE
Lacrosse 5 2.6 21:16:54 10° WSW 21:21:52 56° NNW 21:26:52 10° NE
ERS-1 Rocket 3.9 21:18:46 10° S 21:23:33 44° W 21:28:21 10° NNW
Spot 2 Rocket 3.9 21:19:30 10° S 21:24:30 59° W 21:29:33 10° NNW
Cosmos 220 Rocket 3.9 21:21:04 10° NNW 21:25:15 88° WSW 21:28:09 19° SSE
Cosmos 2082 Rocket 3.5 21:21:52 10° NNW 21:26:49 30° NE 21:31:39 10° ESE
NOSS 2-2 (D) 3.3 21:25:01 10° SW 21:28:12 60° NW 21:31:20 10° NE
ATLAS 5 CENTAUR R/B 3.6 21:25:32 10° W 21:28:28 26° NNW 21:31:45 10° NNE
USA 307 4.1 21:24:52 10° WNW 21:28:33 39° N 21:32:05 10° ENE
Cosmos 2218 Rocket 4.2 21:23:42 15° SSE 21:28:42 52° E 21:34:40 10° NNE
Landsat 5 3.8 21:26:42 10° NNE 21:31:02 53° E 21:34:10 17° S
Cosmos 1844 Rocket 4.4 21:28:30 10° WSW 21:33:33 34° NW 21:38:39 10° NNE
Cosmos 2278 Rocket 3.1 21:31:13 18° SSE 21:34:25 31° ESE 21:39:18 10° NE
Cosmos 1606 3.1 21:31:57 10° NNW 21:35:26 51° W 21:38:05 16° SSW
MetOp-A 3.7 21:35:02 20° SSE 21:38:14 77° ENE 21:42:34 10° NNW
Cosmos 2298 Rocket 4.1 21:33:31 10° S 21:38:41 62° ESE 21:43:57 10° NNE
Cosmos 2341 Rocket 4.0 21:33:38 11° S 21:39:38 79° E 21:46:00 10° NNE
ULPM Upper Stage 4.5 21:36:27 10° NNW 21:40:16 29° NNE 21:44:05 10° E
Cosmos 614 Rocket 4.0 21:36:12 10° NNW 21:41:17 73° ENE 21:44:35 22° SSE
H-2A R/B 4.3 21:44:33 12° E 21:46:42 18° ENE 21:49:19 10° NNE
Cosmos 1869 4.2 21:43:38 10° NNW 21:47:15 42° W 21:50:08 15° SSW
Cosmos 1536 Rocket 3.5 21:47:10 22° S 21:49:52 65° E 21:54:10 10° NNE
CZ-4C R/B 4.0 21:44:10 10° NW 21:50:11 37° NNE 21:57:30 10° E
Ariane Rocket 4.1 21:47:25 11° SSW 21:51:59 38° W 21:56:43 10° NNW
ISS -2.9 21:50:09 10° WNW 21:53:24 51° N 21:56:40 10° E
COSMOS 2406 4.2 21:51:16 10° NNW 21:56:35 38° NE 22:00:48 15° ESE
USA 290 3.5 21:58:15 24° ESE 21:58:15 24° ESE 22:00:48 10° NE
ARIANE 5 R/B 3.0 21:58:54 25° SE 22:01:14 53° ENE 22:05:36 10° N
GENESIS II 4.4 21:58:47 10° NW 22:02:15 49° WSW 22:03:31 32° S
Cosmos 1269 Rocket 4.4 21:58:43 10° NNW 22:03:58 57° ENE 22:07:06 24° SE
BREEZE-M DEB (TANK) 3.6 21:54:20 10° WNW 22:04:19 42° SW 22:06:11 26° S
ATLAS 3B R/B 3.6 22:01:26 22° SSE 22:04:44 31° ESE 22:11:10 10° NE
Cosmos 1727 Rocket 4.1 21:58:31 10° N 22:04:51 66° ENE 22:08:48 24° SSE
Cosmos 2228 3.6 22:01:28 10° NNW 22:05:33 50° W 22:08:06 21° SSW
Cosmos 1943 Rocket 2.8 22:08:20 25° SSE 22:10:46 37° ESE 22:15:54 10° NE
USA 276 3.7 22:11:12 10° W 22:13:09 20° SW 22:13:09 20° SW
Cosmos 1821 Rocket 4.1 22:09:49 22° S 22:13:57 69° E 22:20:17 10° NNE
USA 281 4.4 22:09:52 10° ESE 22:15:37 34° NE 22:21:24 10° NNW
Gbstr 26 Del rocket 3.9 22:14:31 10° W 22:19:15 64° N 22:25:10 10° E
Cosmos 2058 4.1 22:19:03 24° ESE 22:20:01 27° E 22:23:31 10° NNE
Cosmos 2150 Rocket 4.5 22:15:03 10° SW 22:20:24 65° WNW 22:25:52 10° NNE
ALOS 2 3.8 22:19:19 21° ESE 22:21:25 32° ENE 22:25:19 10° N
Cosmos 2084 Rocket 3.3 22:21:43 10° NW 22:25:42 70° NE 22:27:21 32° ESE
Spot 4 4.3 22:23:23 27° SE 22:25:47 51° ENE 22:30:29 10° N
NOSS 3-1 (C) 3.0 22:24:27 12° SW 22:29:05 80° SE 22:35:03 10° NE
Cosmos 1544 4.4 22:30:25 14° NE 22:30:25 14° NE 22:31:03 10° NE
SeaSat 1 2.9 22:26:56 24° ESE 22:29:47 56° NE 22:34:36 10° NNW
Cosmos 1812 2.5 22:32:06 10° N 22:35:39 70° E 22:36:28 48° SE
Terra 4.4 22:34:32 10° WSW 22:36:03 11° W 22:37:34 10° WNW
USA 305 3.7 22:34:40 10° WNW 22:38:04 37° NNE 22:40:35 13° ENE
Cosmos 1238 Rocket 3.7 22:38:05 10° N 22:41:10 32° ENE 22:42:01 28° ESE
Aureole 2 4.2 22:41:11 51° SW 22:41:52 78° WNW 22:45:16 10° NNE
BREEZE-M R/B 3.8 22:37:59 10° WSW 22:42:23 79° SSE 22:57:34 10° ENE
PSLV R/B 3.7 22:39:32 10° NNE 22:43:33 78° ESE 22:44:50 42° S
Cosmos 1892 Rocket 3.5 22:45:05 38° S 22:46:44 75° E 22:51:11 10° NNE
Cosmos 1140 Rocket 3.6 22:47:19 10° NNW 22:52:26 66° ENE 22:54:49 31° SE
MINOTAUR 4 R/B 3.4 22:54:18 10° NNE 22:57:02 80° NE 22:57:02 80° NE
Cosmos 1833 Rocket 4.3 22:52:54 10° NW 22:57:14 23° WSW 23:00:03 16° SW
Cosmos 2239 Rocket 4.5 22:55:30 27° SSW 22:59:06 83° W 23:05:24 10° N
SL-08 R/B 4.5 22:57:34 27° SSW 23:01:06 81° W 23:07:15 10° N
BREEZE-M DEB (TANK) 3.6 22:58:40 10° W 23:01:37 78° SSW 23:09:41 10° ESE
USA 307 3.6 22:58:38 10° WNW 23:02:19 44° NNE 23:05:32 11° E
Cosmos-2242 3.7 23:00:32 10° N 23:04:34 42° ENE 23:05:51 32° ESE
Cosmos 2123 Rocket 4.0 22:58:23 10° N 23:04:42 86° E 23:07:51 32° S
Lacrosse 5 3.7 23:01:04 10° WNW 23:05:39 33° N 23:10:15 10° ENE
CENTAUR R/B 4.4 22:58:32 10° NW 23:05:40 39° NNE 23:13:53 10° E
NOSS 3-1 (A) 3.0 23:03:57 30° SSW 23:06:30 72° SE 23:12:26 10° NE
Cosmos 1726 Rocket 4.3 23:03:29 10° NNW 23:07:36 43° W 23:09:05 31° SW
NOSS 8 (F) 4.3 23:05:41 10° NW 23:08:46 76° SW 23:09:06 67° S
Cosmos 2082 Rocket 2.4 23:05:44 10° NW 23:11:15 57° WSW 23:13:28 34° S
Cosmos 1515 3.9 23:11:07 10° N 23:14:30 47° ENE 23:14:57 43° ESE
Cosmos 2278 Rocket 2.9 23:12:59 11° SW 23:18:15 51° NW 23:23:47 10° NNE
ULPM Upper Stage 2.7 23:15:41 10° NW 23:20:01 66° SW 23:20:59 49° S
Lacrosse 4 Rocket 3.7 23:20:40 11° E 23:20:40 11° E 23:21:28 10° E
Cosmos 2369 Rocket 3.3 23:19:37 24° SE 23:20:59 27° ESE 23:25:37 10° NE
PSLV R/B 3.9 23:17:03 10° NNE 23:21:17 52° E 23:22:20 42° SE
H-2A R/B 2.8 23:20:31 41° SW 23:21:18 48° W 23:25:02 10° NNW
Cosmos 489 Rocket 4.4 23:24:24 32° SSW 23:27:26 78° ESE 23:33:41 10° NNE
ISS -3.9 23:26:59 10° WNW 23:30:09 77° WSW 23:30:09 77° WSW
USA 290 4.3 23:30:56 16° W 23:32:28 23° WNW 23:35:07 10° N
Cosmos 2058 Rocket 3.7 23:29:17 10° NNW 23:33:26 44° W 23:34:37 35° SW
Cosmos 1782 2.5 23:30:10 10° N 23:33:59 89° W 23:34:35 62° S
USA 229 DEB 4.0 23:32:18 33° SSE 23:34:20 44° ESE 23:40:36 10° NE
USA 229 4.0 23:32:27 33° SSE 23:34:28 43° ESE 23:40:43 10° NE
Cosmos 1862 3.9 23:35:38 38° ESE 23:36:07 40° E 23:39:44 10° NNE
CRYOSAT 2 4.3 23:31:18 10° N 23:36:13 81° W 23:37:58 40° SSW
Cosmos 1378 2.7 23:34:50 10° N 23:38:04 73° E 23:38:06 72° E
Cosmos 482 Debris 4.5 23:34:10 10° W 23:38:40 64° NNW 23:41:57 10° ENE
CZ-4C R/B 2.9 23:32:21 10° NW 23:39:26 88° SW 23:45:35 21° SE
COSMOS 2455 4.0 23:34:31 10° NNW 23:40:12 40° NE 23:45:51 10° ESE
Meteor 2-2 Rocket 4.2 23:35:08 10° NNW 23:40:53 90° W 23:43:24 36° S
COSMOS 2406 3.8 23:35:36 10° NW 23:40:57 43° WSW 23:42:50 32° SSW
Cosmos 1934 Rocket 4.2 23:39:12 28° SSW 23:42:36 64° WNW 23:48:48 10° N
Cosmos 2221 3.7 23:41:21 10° N 23:45:12 33° ENE 23:46:52 24° ESE
Cosmos 2285 Rocket 4.1 23:45:33 10° NNW 23:52:02 79° ENE 23:55:34 29° SSE
Cosmos 1943 Rocket 3.2 23:49:48 14° WSW 23:54:27 43° NW 23:59:49 10° NNE
Cosmos 1825 Rocket 4.5 23:54:06 31° ESE 23:55:12 36° E 23:59:10 10° NNE
